| time (UTC) | temp C | wind direction | speed KPH | gust KPH | rain 1hr cm | rain 24hr cm | rain mn cm | humidity % | barometer mb |
| 20260901024256 | 25 | 343 | 1.6 | 3.2 | 0.00 | 0.00 | 0.00 | 84 | 1022.3 |
| 20260901023754 | 25 | 335 | 3.2 | 3.2 | 0.00 | 0.00 | 0.00 | 83 | 1022.2 |
| 20260901023250 | 25 | 341 | 1.6 | 4.8 | 0.00 | 0.00 | 0.00 | 84 | 1022.2 |
| 20260901022745 | 25 | 338 | 1.6 | 3.2 | 0.00 | 0.00 | 0.00 | 82 | 1022.1 |
| 20260901022241 | 25 | 335 | 3.2 | 3.2 | 0.00 | 0.00 | 0.00 | 82 | 1022.3 |
| 20260901021736 | 25 | 336 | 3.2 | 3.2 | 0.00 | 0.00 | 0.00 | 81 | 1022.2 |
| 20260901021231 | 25 | 2 | 3.2 | 3.2 | 0.00 | 0.00 | 0.00 | 81 | 1022.0 |
| 20260901020727 | 25 | 333 | 3.2 | 3.2 | 0.00 | 0.00 | 0.00 | 80 | 1021.9 |
| 20260901020222 | 25 | 322 | 1.6 | 3.2 | 0.00 | 0.00 | 0.00 | 81 | 1022.1 |
| 20260901015717 | 25 | 334 | 3.2 | 4.8 | 0.00 | 0.00 | 0.00 | 80 | 1021.8 |
| 20260901015213 | 25 | 337 | 3.2 | 3.2 | 0.00 | 0.00 | 0.00 | 80 | 1021.8 |
| 20260901014712 | 26 | 359 | 1.6 | 3.2 | 0.00 | 0.00 | 0.00 | 79 | 1021.8 |
| 20260901014208 | 26 | 348 | 3.2 | 3.2 | 0.00 | 0.00 | 0.00 | 79 | 1021.7 |
| 20260901013703 | 26 | 327 | 3.2 | 4.8 | 0.00 | 0.00 | 0.00 | 79 | 1021.6 |
| 20260901013159 | 26 | 353 | 3.2 | 3.2 | 0.00 | 0.00 | 0.00 | 80 | 1021.6 |
| 20260901012654 | 26 | 335 | 3.2 | 6.4 | 0.00 | 0.00 | 0.00 | 78 | 1021.6 |
| 20260901012149 | 26 | 335 | 3.2 | 4.8 | 0.00 | 0.00 | 0.00 | 77 | 1021.5 |
| 20260901011645 | 26 | 335 | 3.2 | 4.8 | 0.00 | 0.00 | 0.00 | 77 | 1021.4 |
| 20260901011144 | 26 | 342 | 3.2 | 3.2 | 0.00 | 0.00 | 0.00 | 77 | 1021.6 |
| 20260901010639 | 26 | 340 | 3.2 | 3.2 | 0.00 | 0.00 | 0.00 | 77 | 1021.6 |
| 20260901010138 | 26 | 343 | 3.2 | 3.2 | 0.00 | 0.00 | 0.00 | 77 | 1021.3 |
| 20260901005638 | 26 | 348 | 1.6 | 3.2 | 0.00 | 0.00 | 0.00 | 76 | 1021.5 |
| 20260901005133 | 26 | 333 | 3.2 | 3.2 | 0.00 | 0.00 | 0.00 | 77 | 1021.2 |
| 20260901004632 | 26 | 337 | 3.2 | 3.2 | 0.00 | 0.00 | 0.00 | 78 | 1021.1 |
| 20260901004128 | 27 | 344 | 3.2 | 3.2 | 0.00 | 0.00 | 0.00 | 77 | 1021.2 |
| 20260901003622 | 26 | 332 | 3.2 | 3.2 | 0.00 | 0.00 | 0.00 | 77 | 1021.0 |
| 20260901003121 | 27 | 329 | 3.2 | 4.8 | 0.00 | 0.00 | 0.00 | 76 | 1021.0 |
| 20260901002615 | 27 | 335 | 3.2 | 4.8 | 0.00 | 0.00 | 0.00 | 77 | 1020.8 |
| 20260901002110 | 27 | 331 | 3.2 | 4.8 | 0.00 | 0.00 | 0.00 | 76 | 1020.9 |
| 20260901001605 | 27 | 335 | 3.2 | 4.8 | 0.00 | 0.00 | 0.00 | 76 | 1020.8 |
| 20260901001100 | 27 | 341 | 3.2 | 3.2 | 0.00 | 0.00 | 0.00 | 75 | 1021.0 |
| 20260901000555 | 28 | 335 | 3.2 | 3.2 | 0.00 | 0.00 | 0.00 | 75 | 1020.8 |
| 20260901000052 | 28 | 333 | 3.2 | 4.8 | 0.00 | 0.00 | 0.00 | 74 | 1020.8 |
| 20260831235545 | 28 | 335 | 3.2 | 3.2 | 0.00 | 0.00 | 0.00 | 74 | 1021.1 |
| 20260831235041 | 28 | 350 | 3.2 | 3.2 | 0.00 | 0.00 | 0.00 | 74 | 1021.0 |
| 20260831234540 | 28 | 338 | 3.2 | 3.2 | 0.00 | 0.00 | 0.00 | 72 | 1020.9 |
| 20260831234036 | 28 | 341 | 1.6 | 4.8 | 0.00 | 0.00 | 0.00 | 72 | 1020.9 |
| 20260831233531 | 29 | 337 | 3.2 | 3.2 | 0.00 | 0.00 | 0.00 | 72 | 1020.8 |
| 20260831233027 | 29 | 340 | 3.2 | 3.2 | 0.00 | 0.00 | 0.00 | 69 | 1020.9 |
| 20260831232521 | 29 | 339 | 3.2 | 3.2 | 0.00 | 0.00 | 0.00 | 67 | 1021.1 |
| 20260831232017 | 30 | 334 | 3.2 | 3.2 | 0.00 | 0.00 | 0.00 | 64 | 1021.0 |
| 20260831231514 | 30 | 333 | 1.6 | 3.2 | 0.00 | 0.00 | 0.00 | 66 | 1021.0 |
| 20260831231009 | 30 | 324 | 1.6 | 3.2 | 0.00 | 0.00 | 0.00 | 62 | 1021.1 |
| 20260831230504 | 31 | 345 | 1.6 | 1.6 | 0.00 | 0.00 | 0.00 | 61 | 1021.1 |
| 20260831225958 | 32 | 125 | 0.0 | 0.0 | 0.00 | 0.00 | 0.00 | 54 | 1021.0 |
| 20260831225455 | 33 | 351 | 1.6 | 1.6 | 0.00 | 0.00 | 0.00 | 55 | 1021.2 |
| 20260831224949 | 34 | 79 | 0.0 | 1.6 | 0.00 | 0.00 | 0.00 | 52 | 1021.1 |
| 20260831224448 | 35 | 157 | 0.0 | 0.0 | 0.00 | 0.00 | 0.00 | 51 | 1021.3 |
| 20260831223943 | 34 | 123 | 0.0 | 0.0 | 0.00 | 0.00 | 0.00 | 52 | 1021.5 |
| 20260831223439 | 33 | 105 | 0.0 | 1.6 | 0.00 | 0.00 | 0.00 | 52 | 1021.2 |
| 20260831222935 | 33 | 104 | 0.0 | 4.8 | 0.00 | 0.00 | 0.00 | 57 | 1021.4 |
| 20260831222431 | 32 | 107 | 3.2 | 3.2 | 0.00 | 0.00 | 0.00 | 53 | 1021.1 |
| 20260831221926 | 32 | 90 | 3.2 | 4.8 | 0.00 | 0.00 | 0.00 | 53 | 1021.2 |
| 20260831221422 | 32 | 102 | 3.2 | 3.2 | 0.00 | 0.00 | 0.00 | 57 | 1021.2 |
| 20260831220917 | 32 | 103 | 3.2 | 6.4 | 0.00 | 0.00 | 0.00 | 53 | 1021.2 |
| 20260831220412 | 32 | 100 | 3.2 | 6.4 | 0.00 | 0.00 | 0.00 | 57 | 1021.2 |
| 20260831215907 | 32 | 107 | 3.2 | 6.4 | 0.00 | 0.00 | 0.00 | 53 | 1021.3 |
| 20260831215403 | 32 | 96 | 4.8 | 4.8 | 0.00 | 0.00 | 0.00 | 51 | 1021.2 |
| 20260831214859 | 32 | 91 | 4.8 | 6.4 | 0.00 | 0.00 | 0.00 | 52 | 1021.5 |
| 20260831214356 | 32 | 107 | 4.8 | 6.4 | 0.00 | 0.00 | 0.00 | 53 | 1021.3 |
| 20260831213851 | 32 | 82 | 3.2 | 6.4 | 0.00 | 0.00 | 0.00 | 51 | 1021.5 |
| 20260831213348 | 33 | 99 | 3.2 | 4.8 | 0.00 | 0.00 | 0.00 | 53 | 1021.5 |
| 20260831212843 | 33 | 115 | 1.6 | 6.4 | 0.00 | 0.00 | 0.00 | 48 | 1021.7 |
| 20260831212339 | 33 | 113 | 3.2 | 3.2 | 0.00 | 0.00 | 0.00 | 49 | 1021.8 |
| 20260831211838 | 32 | 111 | 4.8 | 4.8 | 0.00 | 0.00 | 0.00 | 53 | 1021.5 |
| 20260831211333 | 33 | 108 | 1.6 | 4.8 | 0.00 | 0.00 | 0.00 | 48 | 1021.7 |
| 20260831210833 | 33 | 86 | 3.2 | 3.2 | 0.00 | 0.00 | 0.00 | 49 | 1021.4 |
| 20260831210329 | 33 | 129 | 3.2 | 4.8 | 0.00 | 0.00 | 0.00 | 48 | 1021.6 |
| 20260831205829 | 33 | 123 | 3.2 | 3.2 | 0.00 | 0.00 | 0.00 | 47 | 1021.6 |
| 20260831205325 | 33 | 98 | 3.2 | 3.2 | 0.00 | 0.00 | 0.00 | 50 | 1021.8 |
| 20260831204819 | 33 | 89 | 4.8 | 4.8 | 0.00 | 0.00 | 0.00 | 52 | 1021.7 |
| 20260831204319 | 33 | 117 | 3.2 | 3.2 | 0.00 | 0.00 | 0.00 | 47 | 1021.7 |
| 20260831203818 | 33 | 106 | 3.2 | 3.2 | 0.00 | 0.00 | 0.00 | 51 | 1021.7 |
| 20260831203312 | 32 | 96 | 3.2 | 6.4 | 0.00 | 0.00 | 0.00 | 52 | 1021.8 |
| 20260831202811 | 32 | 114 | 3.2 | 4.8 | 0.00 | 0.00 | 0.00 | 51 | 1021.8 |
| 20260831202306 | 32 | 101 | 3.2 | 4.8 | 0.00 | 0.00 | 0.00 | 49 | 1022.1 |
| 20260831201806 | 32 | 95 | 3.2 | 4.8 | 0.00 | 0.00 | 0.00 | 50 | 1021.9 |
| 20260831201305 | 33 | 100 | 3.2 | 4.8 | 0.00 | 0.00 | 0.00 | 52 | 1022.1 |
| 20260831200801 | 32 | 113 | 3.2 | 4.8 | 0.00 | 0.00 | 0.00 | 45 | 1022.1 |
| 20260831200256 | 32 | 110 | 3.2 | 4.8 | 0.00 | 0.00 | 0.00 | 50 | 1022.3 |
| 20260831195751 | 32 | 124 | 3.2 | 4.8 | 0.00 | 0.00 | 0.00 | 55 | 1022.3 |
| 20260831195247 | 32 | 147 | 3.2 | 4.8 | 0.00 | 0.00 | 0.00 | 48 | 1022.5 |
| 20260831194741 | 32 | 116 | 3.2 | 6.4 | 0.00 | 0.00 | 0.00 | 51 | 1022.7 |
| 20260831194237 | 32 | 98 | 4.8 | 6.4 | 0.00 | 0.00 | 0.00 | 47 | 1022.5 |
| 20260831193730 | 32 | 98 | 3.2 | 4.8 | 0.00 | 0.00 | 0.00 | 49 | 1022.9 |
| 20260831193226 | 32 | 106 | 3.2 | 4.8 | 0.00 | 0.00 | 0.00 | 55 | 1022.7 |
| 20260831192721 | 32 | 100 | 4.8 | 4.8 | 0.00 | 0.00 | 0.00 | 56 | 1022.9 |
| 20260831192216 | 33 | 129 | 1.6 | 1.6 | 0.00 | 0.00 | 0.00 | 52 | 1022.6 |
| 20260831191712 | 33 | 122 | 1.6 | 1.6 | 0.00 | 0.00 | 0.00 | 54 | 1022.9 |
| 20260831191208 | 33 | 117 | 1.6 | 1.6 | 0.00 | 0.00 | 0.00 | 55 | 1022.6 |
| 20260831190703 | 33 | 137 | 0.0 | 1.6 | 0.00 | 0.00 | 0.00 | 53 | 1022.9 |
| 20260831190202 | 33 | 99 | 1.6 | 3.2 | 0.00 | 0.00 | 0.00 | 53 | 1022.7 |
| 20260831185659 | 36 | 158 | 0.0 | 1.6 | 0.00 | 0.00 | 0.00 | 46 | 1023.1 |
| 20260831185154 | 36 | 154 | 0.0 | 1.6 | 0.00 | 0.00 | 0.00 | 46 | 1023.0 |
| 20260831184653 | 35 | 173 | 0.0 | 0.0 | 0.00 | 0.00 | 0.00 | 50 | 1023.0 |
| 20260831184149 | 33 | 156 | 0.0 | 0.0 | 0.00 | 0.00 | 0.00 | 53 | 1023.1 |
| 20260831183648 | 32 | 137 | 0.0 | 1.6 | 0.00 | 0.00 | 0.00 | 54 | 1023.2 |
| 20260831183148 | 32 | 134 | 1.6 | 1.6 | 0.00 | 0.00 | 0.00 | 59 | 1023.1 |
| 20260831182647 | 32 | 120 | 1.6 | 3.2 | 0.00 | 0.00 | 0.00 | 57 | 1023.2 |
| 20260831182143 | 32 | 123 | 1.6 | 1.6 | 0.00 | 0.00 | 0.00 | 57 | 1023.2 |
| 20260831181637 | 32 | 139 | 0.0 | 1.6 | 0.00 | 0.00 | 0.00 | 58 | 1023.4 |
| 20260831181132 | 32 | 149 | 0.0 | 1.6 | 0.00 | 0.00 | 0.00 | 59 | 1023.4 |
| 20260831180627 | 32 | 140 | 0.0 | 3.2 | 0.00 | 0.00 | 0.00 | 59 | 1023.5 |
| 20260831180122 | 32 | 149 | 1.6 | 1.6 | 0.00 | 0.00 | 0.00 | 59 | 1023.8 |
| 20260831175616 | 32 | 151 | 1.6 | 3.2 | 0.00 | 0.00 | 0.00 | 59 | 1023.7 |
| 20260831175114 | 31 | 158 | 0.0 | 1.6 | 0.00 | 0.00 | 0.00 | 60 | 1023.6 |
| 20260831174614 | 31 | 142 | 1.6 | 3.2 | 0.00 | 0.00 | 0.00 | 62 | 1023.6 |
| 20260831174113 | 31 | 137 | 1.6 | 3.2 | 0.00 | 0.00 | 0.00 | 65 | 1023.8 |
| 20260831173612 | 31 | 138 | 3.2 | 3.2 | 0.00 | 0.00 | 0.00 | 66 | 1023.8 |
| 20260831173108 | 31 | 137 | 1.6 | 3.2 | 0.00 | 0.00 | 0.00 | 66 | 1023.9 |
| 20260831172603 | 31 | 124 | 1.6 | 1.6 | 0.00 | 0.00 | 0.00 | 65 | 1023.8 |
| 20260831172057 | 31 | 142 | 1.6 | 3.2 | 0.00 | 0.00 | 0.00 | 64 | 1023.7 |
| 20260831171553 | 32 | 167 | 0.0 | 1.6 | 0.00 | 0.00 | 0.00 | 64 | 1023.8 |
| 20260831171050 | 31 | 198 | 3.2 | 3.2 | 0.00 | 0.00 | 0.00 | 69 | 1023.8 |
| 20260831170546 | 31 | 132 | 3.2 | 3.2 | 0.00 | 0.00 | 0.00 | 67 | 1023.9 |
| 20260831170044 | 31 | 147 | 1.6 | 3.2 | 0.00 | 0.00 | 0.00 | 66 | 1023.9 |
| 20260831165543 | 31 | 140 | 1.6 | 1.6 | 0.00 | 0.00 | 0.00 | 67 | 1024.1 |
| 20260831165040 | 31 | 148 | 1.6 | 3.2 | 0.00 | 0.00 | 0.00 | 65 | 1024.2 |
| 20260831164536 | 32 | 158 | 1.6 | 1.6 | 0.00 | 0.00 | 0.00 | 64 | 1024.0 |
| 20260831164031 | 31 | 159 | 0.0 | 3.2 | 0.00 | 0.00 | 0.00 | 65 | 1024.4 |
| 20260831163526 | 31 | 150 | 1.6 | 3.2 | 0.00 | 0.00 | 0.00 | 65 | 1024.4 |
| 20260831163022 | 31 | 144 | 1.6 | 3.2 | 0.00 | 0.00 | 0.00 | 67 | 1024.3 |
| 20260831162520 | 30 | 140 | 1.6 | 3.2 | 0.00 | 0.00 | 0.00 | 69 | 1024.3 |
| 20260831162018 | 30 | 159 | 1.6 | 3.2 | 0.00 | 0.00 | 0.00 | 67 | 1024.4 |
| 20260831161515 | 32 | 157 | 0.0 | 0.0 | 0.00 | 0.00 | 0.00 | 66 | 1024.4 |
| 20260831161011 | 31 | 159 | 0.0 | 0.0 | 0.00 | 0.00 | 0.00 | 68 | 1024.4 |
| 20260831160510 | 30 | 131 | 0.0 | 3.2 | 0.00 | 0.00 | 0.00 | 71 | 1024.6 |
| 20260831160006 | 31 | 139 | 1.6 | 1.6 | 0.00 | 0.00 | 0.00 | 67 | 1024.6 |
| 20260831155505 | 32 | 153 | 0.0 | 0.0 | 0.00 | 0.00 | 0.00 | 65 | 1024.8 |
| 20260831155001 | 33 | 172 | 0.0 | 1.6 | 0.00 | 0.00 | 0.00 | 64 | 1024.6 |
| 20260831154457 | 32 | 173 | 1.6 | 1.6 | 0.00 | 0.00 | 0.00 | 64 | 1024.7 |
| 20260831153956 | 32 | 170 | 0.0 | 1.6 | 0.00 | 0.00 | 0.00 | 66 | 1024.6 |
| 20260831153451 | 31 | 171 | 0.0 | 1.6 | 0.00 | 0.00 | 0.00 | 67 | 1024.5 |
| 20260831152948 | 32 | 185 | 1.6 | 3.2 | 0.00 | 0.00 | 0.00 | 67 | 1024.4 |
| 20260831152443 | 32 | 161 | 0.0 | 1.6 | 0.00 | 0.00 | 0.00 | 67 | 1024.6 |
| 20260831151938 | 33 | 161 | 0.0 | 1.6 | 0.00 | 0.00 | 0.00 | 64 | 1024.6 |
| 20260831151437 | 32 | 156 | 0.0 | 0.0 | 0.00 | 0.00 | 0.00 | 64 | 1024.5 |
| 20260831150933 | 32 | 169 | 0.0 | 0.0 | 0.00 | 0.00 | 0.00 | 67 | 1024.8 |
| 20260831150428 | 31 | 168 | 0.0 | 0.0 | 0.00 | 0.00 | 0.00 | 69 | 1024.8 |
| 20260831145927 | 30 | 159 | 1.6 | 3.2 | 0.00 | 0.00 | 0.00 | 70 | 1024.9 |
| 20260831145424 | 31 | 152 | 0.0 | 0.0 | 0.00 | 0.00 | 0.00 | 69 | 1025.0 |
| 20260831144919 | 30 | 162 | 0.0 | 1.6 | 0.00 | 0.00 | 0.00 | 71 | 1024.9 |
| 20260831144409 | 30 | 158 | 0.0 | 1.6 | 0.00 | 0.00 | 0.00 | 72 | 1024.6 |
| 20260831143910 | 29 | 139 | 1.6 | 3.2 | 0.00 | 0.00 | 0.00 | 74 | 1024.9 |
| 20260831143405 | 31 | 144 | 0.0 | 1.6 | 0.00 | 0.00 | 0.00 | 69 | 1024.7 |
| 20260831142901 | 31 | 176 | 0.0 | 1.6 | 0.00 | 0.00 | 0.00 | 69 | 1024.8 |
| 20260831142356 | 31 | 172 | 0.0 | 1.6 | 0.00 | 0.00 | 0.00 | 70 | 1024.7 |
| 20260831141855 | 30 | 180 | 0.0 | 1.6 | 0.00 | 0.00 | 0.00 | 72 | 1024.9 |
| 20260831141349 | 30 | 191 | 1.6 | 1.6 | 0.00 | 0.00 | 0.00 | 73 | 1024.9 |
| 20260831140845 | 30 | 162 | 0.0 | 1.6 | 0.00 | 0.00 | 0.00 | 75 | 1024.8 |
| 20260831140339 | 29 | 183 | 0.0 | 1.6 | 0.00 | 0.00 | 0.00 | 76 | 1024.8 |
| 20260831135838 | 29 | 216 | 1.6 | 3.2 | 0.00 | 0.00 | 0.00 | 73 | 1024.5 |
| 20260831135333 | 30 | 175 | 0.0 | 1.6 | 0.00 | 0.00 | 0.00 | 76 | 1024.7 |
| 20260831134828 | 29 | 143 | 0.0 | 1.6 | 0.00 | 0.00 | 0.00 | 78 | 1024.6 |
| 20260831134325 | 29 | 176 | 1.6 | 1.6 | 0.00 | 0.00 | 0.00 | 80 | 1024.6 |
| 20260831133824 | 29 | 174 | 1.6 | 3.2 | 0.00 | 0.00 | 0.00 | 83 | 1024.6 |
| 20260831133324 | 28 | 172 | 0.0 | 1.6 | 0.00 | 0.00 | 0.00 | 84 | 1024.7 |
| 20260831132820 | 27 | 127 | 1.6 | 1.6 | 0.00 | 0.00 | 0.00 | 85 | 1024.7 |
| 20260831132315 | 29 | 168 | 0.0 | 1.6 | 0.00 | 0.00 | 0.00 | 83 | 1024.7 |
| 20260831131814 | 28 | 155 | 0.0 | 1.6 | 0.00 | 0.00 | 0.00 | 81 | 1024.8 |
| 20260831131311 | 29 | 159 | 0.0 | 1.6 | 0.00 | 0.00 | 0.00 | 82 | 1024.6 |
| 20260831130805 | 28 | 165 | 0.0 | 1.6 | 0.00 | 0.00 | 0.00 | 84 | 1024.7 |
| 20260831130301 | 29 | 171 | 1.6 | 1.6 | 0.00 | 0.00 | 0.00 | 84 | 1024.8 |
| 20260831125800 | 28 | 147 | 0.0 | 1.6 | 0.00 | 0.00 | 0.00 | 85 | 1024.5 |
| 20260831125256 | 28 | 160 | 0.0 | 0.0 | 0.00 | 0.00 | 0.00 | 91 | 1024.5 |
| 20260831124755 | 27 | 153 | 0.0 | 1.6 | 0.00 | 0.00 | 0.00 | 92 | 1024.4 |
| 20260831124252 | 26 | 160 | 0.0 | 1.6 | 0.00 | 0.00 | 0.00 | 96 | 1024.5 |
| 20260831123752 | 26 | 163 | 0.0 | 0.0 | 0.00 | 0.00 | 0.00 | 98 | 1024.3 |
| 20260831123251 | 25 | 135 | 0.0 | 0.0 | 0.00 | 0.00 | 0.00 | 99 | 1024.4 |
| 20260831122745 | 24 | 59 | 0.0 | 0.0 | 0.00 | 0.00 | 0.00 | 99 | 1024.3 |
| 20260831122241 | 23 | 101 | 0.0 | 0.0 | 0.00 | 0.00 | 0.00 | 99 | 1024.4 |
| 20260831121740 | 23 | 82 | 0.0 | 1.6 | 0.00 | 0.00 | 0.00 | 99 | 1024.1 |
| 20260831121237 | 23 | 345 | 1.6 | 1.6 | 0.00 | 0.00 | 0.00 | 99 | 1024.1 |
| 20260831120733 | 23 | 17 | 1.6 | 3.2 | 0.00 | 0.00 | 0.00 | 99 | 1024.1 |
| 20260831120232 | 23 | 342 | 1.6 | 1.6 | 0.00 | 0.00 | 0.00 | 99 | 1024.0 |
| 20260831115728 | 22 | 336 | 1.6 | 1.6 | 0.00 | 0.00 | 0.00 | 99 | 1024.1 |
| 20260831115224 | 22 | 340 | 1.6 | 3.2 | 0.00 | 0.00 | 0.00 | 99 | 1024.2 |
| 20260831114723 | 22 | 331 | 3.2 | 3.2 | 0.00 | 0.00 | 0.00 | 99 | 1023.8 |
| 20260831114222 | 22 | 335 | 1.6 | 4.8 | 0.00 | 0.00 | 0.00 | 99 | 1024.0 |
| 20260831113718 | 22 | 347 | 1.6 | 3.2 | 0.00 | 0.00 | 0.00 | 99 | 1023.8 |
| 20260831113213 | 22 | 339 | 1.6 | 3.2 | 0.00 | 0.00 | 0.00 | 99 | 1023.9 |
| 20260831112712 | 22 | 341 | 1.6 | 3.2 | 0.00 | 0.00 | 0.00 | 99 | 1023.9 |
| 20260831112207 | 22 | 336 | 1.6 | 3.2 | 0.00 | 0.00 | 0.00 | 99 | 1023.8 |
| 20260831111703 | 22 | 352 | 1.6 | 3.2 | 0.00 | 0.00 | 0.00 | 99 | 1023.6 |
| 20260831111159 | 22 | 335 | 3.2 | 3.2 | 0.00 | 0.00 | 0.00 | 99 | 1023.7 |
| 20260831110654 | 22 | 344 | 3.2 | 3.2 | 0.00 | 0.00 | 0.00 | 99 | 1023.7 |
| 20260831110144 | 22 | 315 | 1.6 | 3.2 | 0.00 | 0.00 | 0.00 | 99 | 1023.3 |
| 20260831105643 | 22 | 344 | 1.6 | 3.2 | 0.00 | 0.00 | 0.00 | 99 | 1023.4 |
| 20260831105138 | 22 | 334 | 3.2 | 4.8 | 0.00 | 0.00 | 0.00 | 99 | 1023.3 |
| 20260831104633 | 22 | 332 | 3.2 | 3.2 | 0.00 | 0.00 | 0.00 | 99 | 1023.3 |
| 20260831104130 | 22 | 341 | 3.2 | 3.2 | 0.00 | 0.00 | 0.00 | 99 | 1023.4 |
| 20260831103624 | 22 | 350 | 3.2 | 3.2 | 0.00 | 0.00 | 0.00 | 99 | 1023.3 |
| 20260831103120 | 22 | 330 | 1.6 | 3.2 | 0.00 | 0.00 | 0.00 | 99 | 1023.2 |
| 20260831102615 | 22 | 353 | 1.6 | 1.6 | 0.00 | 0.00 | 0.00 | 99 | 1023.4 |
| 20260831102110 | 22 | 357 | 1.6 | 4.8 | 0.00 | 0.00 | 0.00 | 99 | 1023.1 |
| 20260831101609 | 22 | 338 | 1.6 | 3.2 | 0.00 | 0.00 | 0.00 | 99 | 1023.3 |
| 20260831101105 | 22 | 352 | 1.6 | 3.2 | 0.00 | 0.00 | 0.00 | 99 | 1023.1 |
| 20260831100600 | 22 | 340 | 3.2 | 3.2 | 0.00 | 0.00 | 0.00 | 99 | 1023.2 |
| 20260831100052 | 22 | 356 | 3.2 | 3.2 | 0.00 | 0.00 | 0.00 | 99 | 1022.9 |
| 20260831095549 | 22 | 336 | 3.2 | 4.8 | 0.00 | 0.00 | 0.00 | 99 | 1022.9 |
| 20260831095044 | 22 | 341 | 1.6 | 3.2 | 0.00 | 0.00 | 0.00 | 99 | 1023.0 |
| 20260831094541 | 22 | 348 | 1.6 | 3.2 | 0.00 | 0.00 | 0.00 | 99 | 1022.9 |
| 20260831094036 | 22 | 326 | 1.6 | 3.2 | 0.00 | 0.00 | 0.00 | 99 | 1022.9 |
| 20260831093531 | 22 | 341 | 1.6 | 3.2 | 0.00 | 0.00 | 0.00 | 99 | 1022.6 |
| 20260831093027 | 22 | 326 | 1.6 | 3.2 | 0.00 | 0.00 | 0.00 | 99 | 1022.5 |
| 20260831092522 | 22 | 340 | 3.2 | 4.8 | 0.00 | 0.00 | 0.00 | 99 | 1022.7 |
| 20260831092018 | 22 | 344 | 3.2 | 4.8 | 0.00 | 0.00 | 0.00 | 98 | 1022.7 |
| 20260831091513 | 22 | 349 | 1.6 | 3.2 | 0.00 | 0.00 | 0.00 | 98 | 1022.6 |
| 20260831091009 | 22 | 337 | 3.2 | 3.2 | 0.00 | 0.00 | 0.00 | 98 | 1022.5 |
| 20260831090504 | 22 | 336 | 1.6 | 3.2 | 0.00 | 0.00 | 0.00 | 98 | 1022.4 |
| 20260831090000 | 22 | 337 | 3.2 | 3.2 | 0.00 | 0.00 | 0.00 | 98 | 1022.6 |
| 20260831085455 | 22 | 338 | 3.2 | 3.2 | 0.00 | 0.00 | 0.00 | 98 | 1022.7 |
| 20260831084954 | 22 | 346 | 3.2 | 3.2 | 0.00 | 0.00 | 0.00 | 98 | 1022.6 |
| 20260831084450 | 22 | 337 | 3.2 | 3.2 | 0.00 | 0.00 | 0.00 | 98 | 1022.4 |
| 20260831083947 | 22 | 322 | 3.2 | 3.2 | 0.00 | 0.00 | 0.00 | 97 | 1022.4 |
| 20260831083442 | 22 | 339 | 3.2 | 3.2 | 0.00 | 0.00 | 0.00 | 97 | 1022.5 |
| 20260831082941 | 22 | 346 | 3.2 | 3.2 | 0.00 | 0.00 | 0.00 | 98 | 1022.5 |
| 20260831082436 | 22 | 0 | 1.6 | 4.8 | 0.00 | 0.00 | 0.00 | 97 | 1022.2 |
| 20260831081931 | 22 | 341 | 1.6 | 3.2 | 0.00 | 0.00 | 0.00 | 97 | 1022.5 |
| 20260831081427 | 22 | 352 | 1.6 | 3.2 | 0.00 | 0.00 | 0.00 | 97 | 1022.5 |
| 20260831080923 | 22 | 345 | 3.2 | 3.2 | 0.00 | 0.00 | 0.00 | 97 | 1022.4 |
| 20260831080417 | 22 | 328 | 1.6 | 3.2 | 0.00 | 0.00 | 0.00 | 97 | 1022.4 |
| 20260831075913 | 22 | 344 | 3.2 | 3.2 | 0.00 | 0.00 | 0.00 | 97 | 1022.5 |
| 20260831075408 | 22 | 331 | 3.2 | 4.8 | 0.00 | 0.00 | 0.00 | 96 | 1022.7 |
| 20260831074909 | 22 | 336 | 3.2 | 3.2 | 0.00 | 0.00 | 0.00 | 96 | 1022.5 |
| 20260831074408 | 23 | 340 | 3.2 | 3.2 | 0.00 | 0.00 | 0.00 | 97 | 1022.3 |
| 20260831073903 | 22 | 345 | 3.2 | 3.2 | 0.00 | 0.00 | 0.00 | 97 | 1022.3 |
| 20260831073402 | 23 | 349 | 1.6 | 1.6 | 0.00 | 0.00 | 0.00 | 97 | 1022.4 |
| 20260831072857 | 23 | 324 | 3.2 | 4.8 | 0.00 | 0.00 | 0.00 | 96 | 1022.2 |
| 20260831072353 | 22 | 341 | 1.6 | 3.2 | 0.00 | 0.00 | 0.00 | 97 | 1022.4 |
| 20260831071849 | 23 | 340 | 3.2 | 3.2 | 0.00 | 0.00 | 0.00 | 96 | 1022.4 |
| 20260831071348 | 23 | 30 | 1.6 | 3.2 | 0.00 | 0.00 | 0.00 | 96 | 1022.6 |
| 20260831070843 | 23 | 348 | 3.2 | 3.2 | 0.00 | 0.00 | 0.00 | 96 | 1022.5 |
| 20260831070342 | 23 | 339 | 3.2 | 4.8 | 0.00 | 0.00 | 0.00 | 96 | 1022.6 |
| 20260831065841 | 22 | 324 | 3.2 | 3.2 | 0.00 | 0.00 | 0.00 | 96 | 1022.5 |
| 20260831065339 | 23 | 1 | 1.6 | 4.8 | 0.00 | 0.00 | 0.00 | 96 | 1022.7 |
| 20260831064835 | 23 | 6 | 3.2 | 4.8 | 0.00 | 0.00 | 0.00 | 96 | 1022.5 |
| 20260831064330 | 23 | 338 | 3.2 | 3.2 | 0.00 | 0.00 | 0.00 | 96 | 1022.7 |
| 20260831063826 | 23 | 340 | 3.2 | 4.8 | 0.00 | 0.00 | 0.00 | 96 | 1022.7 |
| 20260831063327 | 23 | 330 | 3.2 | 3.2 | 0.00 | 0.00 | 0.00 | 96 | 1022.5 |
| 20260831062826 | 23 | 339 | 3.2 | 3.2 | 0.00 | 0.00 | 0.00 | 95 | 1022.4 |
| 20260831062322 | 23 | 332 | 3.2 | 3.2 | 0.00 | 0.00 | 0.00 | 96 | 1022.4 |
| 20260831061820 | 23 | 334 | 3.2 | 3.2 | 0.00 | 0.00 | 0.00 | 96 | 1022.4 |
| 20260831061320 | 23 | 336 | 3.2 | 3.2 | 0.00 | 0.00 | 0.00 | 95 | 1022.7 |
| 20260831060816 | 23 | 336 | 3.2 | 3.2 | 0.00 | 0.00 | 0.00 | 95 | 1022.9 |
| 20260831060316 | 23 | 338 | 3.2 | 3.2 | 0.00 | 0.00 | 0.00 | 95 | 1022.6 |
| 20260831055815 | 23 | 335 | 3.2 | 3.2 | 0.00 | 0.00 | 0.00 | 95 | 1022.7 |
| 20260831055311 | 23 | 342 | 1.6 | 3.2 | 0.00 | 0.00 | 0.00 | 95 | 1022.7 |
| 20260831054806 | 23 | 329 | 3.2 | 3.2 | 0.00 | 0.00 | 0.00 | 95 | 1022.7 |
| 20260831054301 | 23 | 335 | 3.2 | 3.2 | 0.00 | 0.00 | 0.00 | 95 | 1022.6 |
| 20260831053800 | 23 | 330 | 3.2 | 3.2 | 0.00 | 0.00 | 0.00 | 95 | 1022.5 |
| 20260831053258 | 23 | 331 | 3.2 | 3.2 | 0.00 | 0.00 | 0.00 | 95 | 1022.7 |
| 20260831052753 | 23 | 343 | 3.2 | 3.2 | 0.00 | 0.00 | 0.00 | 95 | 1022.6 |
| 20260831052252 | 23 | 341 | 1.6 | 3.2 | 0.00 | 0.00 | 0.00 | 95 | 1022.6 |
| 20260831051750 | 23 | 329 | 3.2 | 3.2 | 0.00 | 0.00 | 0.00 | 94 | 1022.5 |
| 20260831051249 | 23 | 325 | 3.2 | 3.2 | 0.00 | 0.00 | 0.00 | 94 | 1022.4 |
| 20260831050744 | 23 | 340 | 3.2 | 3.2 | 0.00 | 0.00 | 0.00 | 94 | 1022.4 |
| 20260831050243 | 23 | 332 | 3.2 | 3.2 | 0.00 | 0.00 | 0.00 | 94 | 1022.6 |
| 20260831045733 | 23 | 332 | 3.2 | 3.2 | 0.00 | 0.00 | 0.00 | 94 | 1022.7 |
| 20260831045232 | 24 | 334 | 3.2 | 3.2 | 0.00 | 0.00 | 0.00 | 93 | 1022.7 |
| 20260831044727 | 23 | 329 | 3.2 | 3.2 | 0.00 | 0.00 | 0.00 | 93 | 1023.1 |
| 20260831044222 | 23 | 338 | 3.2 | 3.2 | 0.00 | 0.00 | 0.00 | 93 | 1022.7 |
| 20260831043718 | 24 | 336 | 1.6 | 3.2 | 0.00 | 0.00 | 0.00 | 93 | 1022.7 |
| 20260831043213 | 23 | 331 | 3.2 | 3.2 | 0.00 | 0.00 | 0.00 | 92 | 1022.9 |
| 20260831042712 | 23 | 335 | 3.2 | 3.2 | 0.00 | 0.00 | 0.00 | 92 | 1022.9 |
| 20260831042208 | 23 | 335 | 3.2 | 3.2 | 0.00 | 0.00 | 0.00 | 92 | 1022.6 |
| 20260831041702 | 23 | 341 | 3.2 | 4.8 | 0.00 | 0.00 | 0.00 | 91 | 1022.5 |
| 20260831041156 | 23 | 336 | 3.2 | 3.2 | 0.00 | 0.00 | 0.00 | 92 | 1022.7 |
| 20260831040651 | 24 | 338 | 3.2 | 3.2 | 0.00 | 0.00 | 0.00 | 91 | 1022.7 |
| 20260831040150 | 24 | 334 | 3.2 | 3.2 | 0.00 | 0.00 | 0.00 | 91 | 1022.6 |
| 20260831035649 | 24 | 331 | 3.2 | 3.2 | 0.00 | 0.00 | 0.00 | 91 | 1022.5 |
| 20260831035149 | 24 | 341 | 3.2 | 3.2 | 0.00 | 0.00 | 0.00 | 90 | 1022.7 |
| 20260831034648 | 24 | 326 | 3.2 | 3.2 | 0.00 | 0.00 | 0.00 | 90 | 1022.7 |
| 20260831034144 | 24 | 338 | 3.2 | 3.2 | 0.00 | 0.00 | 0.00 | 91 | 1022.6 |
| 20260831033640 | 24 | 344 | 3.2 | 3.2 | 0.00 | 0.00 | 0.00 | 90 | 1022.6 |
| 20260831033135 | 24 | 336 | 3.2 | 4.8 | 0.00 | 0.00 | 0.00 | 90 | 1022.5 |
| 20260831032634 | 24 | 324 | 3.2 | 4.8 | 0.00 | 0.00 | 0.00 | 90 | 1022.7 |
| 20260831032130 | 24 | 334 | 3.2 | 4.8 | 0.00 | 0.00 | 0.00 | 90 | 1022.7 |
| 20260831031630 | 24 | 330 | 3.2 | 4.8 | 0.00 | 0.00 | 0.00 | 89 | 1022.6 |
| 20260831031129 | 25 | 337 | 3.2 | 3.2 | 0.00 | 0.00 | 0.00 | 89 | 1022.7 |
| 20260831030628 | 24 | 330 | 3.2 | 3.2 | 0.00 | 0.00 | 0.00 | 89 | 1022.5 |
| 20260831030127 | 25 | 338 | 1.6 | 3.2 | 0.00 | 0.00 | 0.00 | 89 | 1022.6 |
| 20260831025626 | 25 | 328 | 3.2 | 3.2 | 0.00 | 0.00 | 0.00 | 88 | 1022.7 |
| 20260831025121 | 25 | 332 | 3.2 | 3.2 | 0.00 | 0.00 | 0.00 | 88 | 1022.9 |
| 20260831024617 | 25 | 329 | 3.2 | 3.2 | 0.00 | 0.00 | 0.00 | 88 | 1022.9 |